Wind_Speed
40 41 41 40 38 38 38 39 39 40 40 41 41 42 43 43 44 45 46 46 47 48 49 50 51 52 53 53 53 54 54 54 54 54 54 54 53 54
40 41 41 42 40 39 40 40 41 42 42 43 43 44 45 46 46 47 48 49 49 50 51 52 53 54 54 55 55 55 56 56 56 55 55 55 55 56
42 42 43 43 42 42 42 42 43 44 44 45 45 46 48 48 48 49 50 50 52 53 53 54 55 55 56 56 56 57 57 57 57 56 56 56 55 55
44 45 45 44 44 44 43 43 44 45 46 47 47 47 49 50 51 51 51 52 54 55 55 56 57 57 57 58 58 58 57 56 56 55 55 55 55 54
45 46 45 45 45 44 45 45 45 46 47 47 48 49 49 50 51 52 53 54 55 55 55 56 57 58 58 58 58 58 57 56 55 54 54 54 54 53
45 45 45 46 46 45 45 45 46 46 47 48 49 50 50 50 51 52 53 54 55 55 56 56 57 57 58 57 57 56 56 55 55 55 55 54 54 54
46 46 46 46 46 46 46 46 46 47 48 49 50 50 51 51 52 53 53 54 55 56 56 56 57 57 56 56 55 54 54 54 55 55 55 55 55 55
46 46 47 47 47 47 47 47 48 49 49 50 51 51 52 53 53 54 55 55 56 55 56 56 56 55 55 55 54 54 54 54 54 54 54 54 55 55
46 46 46 47 48 47 48 49 49 50 50 51 52 52 52 53 55 55 55 56 55 56 56 54 54 54 54 53 54 53 54 54 54 54 54 54 54 54
47 47 47 48 49 49 48 49 49 50 51 52 52 53 53 54 55 55 55 55 55 54 55 53 52 53 53 54 54 54 54 54 54 54 55 55 55 54
48 48 48 48 49 49 49 50 50 51 52 53 53 53 54 55 56 56 56 56 54 53 53 53 52 53 53 52 53 54 54 54 54 54 54 54 53 52
47 48 48 49 49 49 50 51 51 52 53 53 54 54 55 55 56 56 56 55 54 52 52 53 53 53 52 51 52 52 53 53 52 52 52 51 50 49
47 47 49 49 50 51 51 51 52 53 53 54 54 55 55 55 55 54 54 53 52 51 52 51 51 51 51 50 50 50 51 51 50 50 50 49 48 47
46 47 48 49 50 50 51 52 52 53 54 54 54 53 53 52 52 52 51 51 50 50 50 50 50 50 50 49 49 48 48 49 48 48 48 46 45 45
44 45 46 47 48 49 50 50 51 52 53 54 53 52 51 51 50 49 49 49 49 49 48 48 49 49 49 49 48 47 47 46 46 46 45 43 43 43
44 44 46 46 47 47 48 49 50 51 52 52 51 49 48 48 48 48 48 48 48 47 48 48 48 48 48 47 47 46 46 45 44 43 43 42 42 43
44 44 45 45 46 46 47 47 48 49 49 49 48 47 47 47 47 47 47 47 47 47 47 48 48 48 47 46 46 45 44 44 43 42 41 41 42 43
44 44 44 45 46 46 47 47 48 48 48 47 47 47 47 46 46 46 47 47 47 46 47 47 46 46 45 44 44 44 43 43 42 42 42 41 41 42
43 44 45 46 46 47 47 47 47 47 46 46 46 47 46 45 45 45 45 46 45 45 44 44 44 43 43 42 42 43 41 40 41 41 41 40 40 39
43 44 45 45 45 46 47 47 46 46 46 45 45 45 44 44 44 44 44 44 43 43 43 42 42 42 41 41 40 39 40 40 40 40 39 38 37 37
43 44 45 45 45 46 47 47 46 45 45 44 43 43 43 43 43 43 43 42 42 42 41 40 40 40 39 39 38 37 37 38 38 37 36 36 35 35
43 44 44 45 45 45 45 45 45 44 43 43 43 43 43 43 42 42 42 41 41 40 39 39 39 38 38 37 37 36 36 37 36 36 36 35 34 33
42 43 43 44 44 44 44 44 43 43 42 42 42 42 42 42 42 41 41 40 39 38 38 37 37 37 37 37 37 37 36 36 35 35 35 34 33 31
Wind_Direction
254 256 258 260 263 265 266 267 270 271 270 271 272 272 275 277 278 278 279 280 281 282 282 283 284 285 285 286 286 286 286 286 285 285 285 284 284 283
253 256 258 260 263 264 266 268 270 271 272 272 273 274 275 277 278 278 279 280 282 283 284 285 285 286 286 286 286 286 286 286 285 285 284 284 283 283
254 256 259 261 263 264 266 268 270 272 273 274 276 277 278 278 279 279 279 281 282 283 284 286 286 286 286 286 286 286 286 285 284 284 283 284 284 284
255 258 260 262 263 264 266 269 271 272 273 275 276 278 279 280 280 280 281 282 283 284 284 285 284 285 286 286 286 286 285 285 284 284 284 284 284 284
258 259 261 262 263 265 268 270 271 272 274 275 277 278 280 281 281 282 283 284 285 285 285 286 285 286 286 285 285 285 284 284 284 284 284 284 284 284
259 260 261 262 263 265 267 269 271 273 275 276 278 280 281 282 283 283 284 285 286 287 287 287 287 287 286 286 286 286 285 284 284 284 284 284 284 283
258 259 261 262 263 264 266 269 271 274 276 278 279 281 282 283 284 284 285 286 287 288 288 288 289 288 287 287 287 287 286 285 284 284 284 284 284 283
260 260 261 263 264 266 267 270 272 275 277 279 281 282 283 284 283 285 286 286 287 287 288 289 288 287 287 287 287 287 287 285 285 285 285 284 284 283
259 261 262 264 266 267 269 271 274 276 278 280 281 282 283 284 284 285 286 288 289 289 289 289 288 287 287 287 287 287 287 287 286 286 285 285 284 284
260 262 264 265 267 268 271 273 275 277 278 280 282 283 283 283 284 286 287 288 289 289 289 289 288 288 288 289 288 288 287 287 286 286 286 286 285 284
261 262 264 266 268 269 272 274 276 277 279 280 282 283 284 284 285 286 288 288 289 289 288 289 289 289 289 289 288 288 288 287 287 287 286 286 286 285
263 264 265 266 268 269 272 274 276 278 280 281 282 284 284 285 285 287 287 288 289 289 288 289 290 290 289 289 289 288 288 287 287 287 287 287 286 285
264 265 266 267 269 271 272 274 276 278 280 281 282 283 284 284 285 287 288 289 289 289 289 289 290 290 291 290 289 288 288 288 288 288 288 287 286 286
264 266 267 269 271 271 273 275 277 279 280 281 282 283 285 285 286 287 288 288 289 289 289 290 291 291 291 291 290 289 289 289 288 288 288 287 287 287
265 267 268 269 271 273 274 276 278 280 281 281 282 284 285 286 286 287 287 288 289 289 290 291 292 293 293 293 292 291 290 289 288 288 288 288 288 288
266 268 270 271 272 273 275 277 279 281 282 283 283 284 285 285 286 287 288 288 288 289 290 291 292 293 293 293 293 292 291 291 290 289 288 287 287 288
269 270 271 273 274 275 277 279 281 283 283 284 284 285 285 286 286 287 288 288 288 289 290 291 292 293 293 294 294 293 292 291 291 290 288 288 288 288
269 271 272 274 276 277 278 280 282 282 282 283 283 284 285 285 286 287 288 288 288 289 290 291 292 293 293 294 294 293 292 291 291 291 290 289 289 290
269 271 273 275 277 278 280 281 282 281 281 282 283 284 285 285 286 287 288 288 288 289 290 291 292 293 294 294 294 293 292 292 292 292 292 291 291 291
269 271 274 276 277 278 280 280 279 279 280 281 282 283 284 285 286 288 289 289 288 289 290 292 292 293 294 295 295 293 292 293 293 293 293 293 292 292
271 273 275 276 277 278 279 278 278 278 280 281 281 282 284 285 286 288 289 289 289 289 290 291 292 293 294 295 295 294 294 295 295 295 294 293 293 292
272 274 276 277 277 277 277 277 277 278 279 280 281 283 284 285 286 288 289 289 289 289 289 290 291 293 294 295 296 294 295 295 296 296 296 295 294 293
274 275 276 277 278 277 277 277 278 278 278 280 281 283 284 285 286 287 288 288 287 288 289 290 291 292 293 294 295 294 294 294 294 296 297 296 293 292
Height
5742 5743 5745 5746 5747 5748 5748 5749 5749 5749 5749 5749 5748 5747 5746 5745 5743 5741 5739 5737 5735 5733 5731 5729 5727 5724 5721 5718 5715 5712 5709 5706 5703 5700 5697 5694 5691 5689
5733 5735 5736 5738 5738 5738 5739 5739 5739 5738 5738 5738 5737 5736 5735 5733 5732 5730 5727 5725 5723 5720 5718 5715 5713 5710 5707 5704 5701 5698 5694 5691 5687 5684 5681 5678 5675 5673
5724 5725 5726 5727 5728 5729 5729 5729 5728 5728 5727 5727 5726 5724 5722 5721 5719 5717 5714 5712 5710 5707 5704 5701 5698 5695 5692 5689 5685 5682 5678 5674 5671 5667 5664 5661 5659 5656
5714 5715 5716 5717 5718 5718 5718 5718 5717 5717 5716 5715 5714 5712 5710 5708 5706 5704 5701 5698 5696 5693 5690 5686 5683 5679 5676 5672 5668 5665 5661 5657 5654 5651 5649 5646 5643 5640
5704 5705 5705 5706 5706 5707 5707 5706 5706 5705 5704 5703 5702 5700 5698 5695 5693 5690 5688 5684 5681 5678 5675 5671 5667 5663 5659 5655 5652 5648 5645 5642 5639 5636 5633 5630 5627 5624
5693 5694 5694 5695 5696 5696 5695 5695 5695 5694 5692 5691 5690 5688 5685 5682 5680 5677 5675 5671 5668 5664 5660 5656 5652 5648 5643 5639 5636 5632 5629 5626 5623 5620 5617 5615 5612 5609
5681 5682 5683 5684 5684 5684 5684 5683 5683 5682 5681 5679 5677 5675 5672 5669 5667 5664 5661 5658 5654 5649 5646 5641 5637 5633 5628 5624 5620 5617 5614 5611 5608 5605 5602 5599 5596 5593
5670 5671 5671 5672 5672 5672 5672 5671 5671 5670 5669 5667 5664 5662 5659 5656 5653 5650 5646 5644 5641 5637 5631 5627 5621 5617 5613 5610 5606 5602 5599 5595 5592 5590 5587 5584 5581 5578
5658 5659 5660 5660 5660 5660 5660 5659 5658 5657 5655 5653 5651 5648 5645 5643 5639 5636 5632 5628 5624 5620 5615 5612 5607 5603 5599 5595 5591 5587 5583 5580 5577 5574 5571 5568 5565 5562
5647 5648 5648 5648 5648 5648 5648 5647 5645 5644 5642 5640 5638 5635 5631 5628 5625 5622 5618 5614 5611 5605 5599 5597 5593 5589 5585 5580 5576 5572 5568 5564 5561 5558 5555 5552 5549 5546
5635 5635 5636 5636 5636 5636 5635 5634 5633 5631 5628 5626 5623 5620 5617 5614 5610 5607 5603 5599 5596 5592 5586 5582 5579 5575 5571 5567 5561 5557 5553 5549 5546 5542 5539 5536 5533 5530
5622 5623 5623 5624 5623 5622 5622 5621 5620 5618 5616 5613 5610 5607 5603 5600 5596 5592 5588 5584 5580 5578 5573 5568 5564 5560 5558 5554 5549 5543 5539 5534 5531 5527 5524 5521 5518 5515
5610 5610 5610 5610 5610 5609 5608 5607 5606 5604 5602 5599 5596 5593 5589 5585 5582 5577 5573 5569 5566 5563 5559 5554 5550 5545 5541 5540 5536 5530 5525 5521 5517 5514 5510 5507 5504 5501
5597 5597 5597 5597 5596 5596 5595 5593 5592 5590 5588 5585 5582 5579 5575 5572 5568 5564 5560 5556 5552 5549 5544 5540 5536 5532 5528 5524 5522 5517 5513 5508 5504 5501 5498 5495 5492 5489
5584 5584 5584 5584 5583 5582 5581 5580 5578 5576 5573 5571 5568 5565 5561 5558 5554 5551 5547 5543 5540 5535 5531 5527 5523 5519 5515 5511 5507 5503 5500 5497 5492 5489 5486 5483 5480 5477
5572 5572 5571 5570 5570 5569 5568 5566 5564 5562 5559 5557 5554 5551 5548 5545 5541 5538 5535 5531 5528 5524 5519 5514 5510 5506 5502 5498 5494 5490 5486 5483 5481 5477 5474 5472 5469 5466
5559 5559 5559 5558 5557 5556 5555 5553 5551 5548 5546 5543 5540 5538 5535 5532 5529 5525 5522 5518 5515 5512 5508 5503 5498 5494 5490 5486 5481 5477 5474 5472 5468 5465 5463 5460 5457 5454
5547 5547 5547 5546 5545 5544 5542 5540 5538 5535 5533 5530 5528 5525 5522 5519 5516 5513 5509 5506 5503 5499 5495 5491 5487 5483 5479 5475 5470 5466 5463 5460 5457 5453 5450 5448 5446 5442
5535 5535 5534 5533 5532 5531 5529 5527 5525 5523 5520 5518 5515 5513 5510 5507 5504 5501 5497 5494 5491 5487 5483 5479 5475 5471 5468 5465 5461 5455 5452 5449 5446 5442 5439 5436 5434 5431
5523 5523 5522 5521 5519 5518 5516 5514 5512 5510 5508 5505 5503 5500 5497 5494 5492 5488 5485 5481 5478 5475 5471 5468 5464 5460 5457 5454 5450 5446 5441 5438 5435 5432 5429 5426 5423 5420
5511 5510 5509 5508 5506 5505 5503 5501 5499 5497 5495 5492 5490 5487 5485 5482 5479 5476 5473 5469 5466 5463 5460 5457 5453 5450 5446 5443 5440 5437 5432 5428 5424 5421 5419 5416 5414 5411
5498 5497 5496 5494 5493 5491 5489 5488 5486 5484 5482 5480 5477 5475 5472 5470 5467 5464 5461 5458 5455 5452 5449 5446 5443 5440 5437 5434 5430 5427 5424 5420 5415 5412 5408 5406 5403 5401
5485 5484 5482 5481 5480 5478 5476 5474 5473 5471 5469 5467 5465 5463 5460 5458 5455 5452 5450 5447 5444 5441 5439 5436 5433 5430 5427 5424 5421 5417 5414 5411 5407 5404 5401 5396 5394 5392